Meteo Giornale » Osservazioni meteo Gran Bretagna » Luton

ore: 19:50 - Osservazioni Meteo Luton
Lat. 51° 52' N Lon. 0° 22' W Alt. 160 metri s.l.m.

sereno

18 °C

Sereno

Temp. 24 Ore

12 °C

22 °C

Ovest/Nord-Ovest

25.9 Km/h

Dew point 10 °C

Umidità 59 %

Visibilità  10 Km

Il sole sorge alle ore 06:12

Il sole tramonta alle ore 19:51

Data e Ora Cielo e Fenomeni T °C DP °C Um. % Pres. hPa Vis. km Vento km/h
Oggi h: 19:50 sereno Sereno 18 10 59 1016 10 O/NO 25.9
Oggi h: 19:20 sereno Sereno 19 10 55 1016 10 O/NO 27.8
Oggi h: 18:50 molto_nuvoloso Molto Nuvoloso 19 12 63 1015 10 O/NO 22.2
Oggi h: 18:20 molto_nuvoloso Pioggia nelle vicinanze 19 12 63 1015 10 O/NO 20.3
Oggi h: 17:50 molto_nuvoloso Molto Nuvoloso 21 12 56 1014 10 O 25.9
Oggi h: 17:20 nuvoloso Nuvoloso 21 11 52 1014 10 O/NO 24
Oggi h: 16:50 sereno Sereno 22 11 49 1014 10 O 22.2
Oggi h: 16:20 sereno Sereno 20 12 59 1014 10 O 24
Oggi h: 15:50 poco_nuvoloso Poco Nuvoloso 20 12 59 1013 10 O 37
Oggi h: 15:20 molto_nuvoloso Molto Nuvoloso 21 12 56 1013 10 O 27.8
Oggi h: 14:50 nuvoloso Nuvoloso 21 12 56 1013 10 O 29.6
Oggi h: 14:20 molto_nuvoloso Molto Nuvoloso 20 12 59 1012 10 O 29.6
Oggi h: 13:50 nuvoloso Pioggia nelle vicinanze 20 12 59 1012 10 O/NO 24
Oggi h: 13:20 molto_nuvoloso Pioggia nelle vicinanze 19 12 63 1012 10 O 25.9
Oggi h: 12:50 molto_nuvoloso Molto Nuvoloso 20 11 56 1011 10 O/NO 29.6
Oggi h: 12:20 molto_nuvoloso Molto Nuvoloso 20 12 59 1011 10 O/NO 27.8
Oggi h: 11:50 molto_nuvoloso Molto Nuvoloso 20 12 59 1010 10 O 24
Oggi h: 11:20 nuvoloso Nuvoloso 19 12 63 1010 10 O/NO 27.8
Oggi h: 10:50 molto_nuvoloso Molto Nuvoloso 17 12 72 1010 10 O 27.8
Oggi h: 10:20 molto_nuvoloso Molto Nuvoloso 17 12 72 1009 10 O 29.6
Oggi h: 09:50 coperto Coperto 16 12 77 1009 10 O/NO 25.9
Oggi h: 09:20 molto_nuvoloso Molto Nuvoloso 15 12 82 1008 10 O 29.6
Oggi h: 08:50 sereno Sereno 14 12 87 1008 10 O 27.8
Oggi h: 08:20 sereno Sereno 14 12 87 1007 10 O 27.8
Oggi h: 07:50 sereno Sereno 14 12 87 1007 10 O 24
Oggi h: 07:20 poco_nuvoloso Poco Nuvoloso 12 11 93 1007 10 O 22.2
Oggi h: 06:50 molto_nuvoloso Molto Nuvoloso 13 11 87 1006 10 O 22.2
Oggi h: 06:20 coperto_pioggia Pioggia 13 11 87 1006 10 O 24
Oggi h: 05:50 coperto Coperto 13 11 87 1005 10 O/SO 16.7
Oggi h: 05:20 nuvoloso Nuvoloso 12 11 93 1005 10 O/SO 18.5
Oggi h: 04:50 poco_nuvoloso Poco Nuvoloso 13 11 87 1005 10 O/SO 22.2
Oggi h: 04:20 molto_nuvoloso Molto Nuvoloso 14 12 87 1005 10 O/SO 24
Oggi h: 03:50 molto_nuvoloso Molto Nuvoloso 14 12 87 1004 10 O/SO 18.5
Oggi h: 03:20 coperto_pioggia Pioggia 14 13 93 1004 10 SO 16.7
Oggi h: 02:50 coperto_pioggia Pioggia 14 13 93 1004 10 S/SO 14.8
Oggi h: 02:20 coperto_pioggia Pioggia 15 14 93 1004 10 S/SO 13
Oggi h: 01:50 coperto_pioggia Pioggia 14 13 93 1004 10 S 11.1
Oggi h: 01:20 coperto_pioggia Pioggia 14 14 100 1004 10 S 13
Oggi h: 00:50 coperto Coperto 15 14 93 1005 10 S/SO 16.7
Oggi h: 00:20 molto_nuvoloso Molto Nuvoloso 14 14 100 1005 10 S/SO 16.7
Ieri h: 23:50 molto_nuvoloso Molto Nuvoloso 15 14 93 1005 10 SO 14.8
Ieri h: 23:20 sereno Sereno 14 13 93 1005 10 SO 20.3
Ieri h: 22:50 coperto_pioggia Pioggia 15 13 87 1005 10 SO 33.3
Ieri h: 22:20 coperto_pioggia Pioggia 15 14 93 1005 5 S 13
Ieri h: 21:50 coperto_pioggia Pioggia 17 13 77 1006 10 S 14.8
Ieri h: 21:20 poco_nuvoloso Poco Nuvoloso 17 13 77 1006 10 S 13
Ieri h: 20:50 sereno Sereno 17 12 72 1006 10 S 13